Regional Weather Roundup
Issued by NWS

Home | Current Version | Previous Version | Graphics & Text | Print | Product List | Glossary On
Versions: 1 2 3 4 5 6 7 8 9 10 11 12 13 14 15 16 17 18 19 20 21 22 23 24 25 26 27 28 29 30 31 32 33 34 35 36 37 38 39 40 41 42 43 44 45 46 47 48 49 50
000
ASUS43 KIND 041109
RWRIN

WEATHER ROUNDUP FOR INDIANA
NATIONAL WEATHER SERVICE INDIANAPOLIS IN
700 AM EDT FRI SEP 04 2015

NOTE: "FAIR" INDICATES FEW OR NO CLOUDS BELOW 12,000 FEET WITH NO
SIGNIFICANT WEATHER AND/OR OBSTRUCTIONS TO VISIBILITY.

* - STATION DOES NOT REPORT WEATHER SUCH AS PRECIPITATION OR FOG.

+ - STATION NOT QUALITY CONTROLLED BY THE NATIONAL WEATHER SERVICE.
    USE DATA WITH CAUTION...ESPECIALLY DEWPOINT AND RELATIVE
    HUMIDITY OBSERVATIONS.

INZ001>003-010>013-019-020-041200-
NORTHWEST INDIANA

CITY           SKY/WX    TMP DP  RH WIND       PRES   REMARKS
GARY /AIRPORT/ PTCLDY    68  64  88 CALM      29.98S
KNOX *+          N/A     63  63 100 CALM      29.98S VSB 3/4
LA PORTE +     CLOUDY   N/A N/A N/A CALM      30.00R HAZE
MICHIGAN CITY+ CLOUDY    64  64 100 CALM      29.99S
MONTICELLO +   CLEAR     66  66 100 CALM      29.98R FOG
RENSSELAER +   CLEAR     64  64 100 CALM      29.99R FOG
VALPARAISO     CLEAR     66  64  93 CALM      30.00R FOG

$$

LMZ046-743>745-041200-
SOUTHERN LAKE MICHIGAN

STATION/POSITION TIME  TEMP    WIND        PRES    WAVE
                       AIR SEA DIR/SP/G            HT
                 (UTC) (F)     (DEG/KT/KT) (MB)    (FT)
BURNS HARBOR     1000   72      10/  4/  7 1015.2S
MICHIGAN CITY    1000   70     330/  7/  8   N/A
5NW MICH CITY    1100   71 73   40/  4/  6   N/A     2

$$

INZ004-005-014>016-021>024-041200-
NORTH CENTRAL INDIANA

CITY           SKY/WX    TMP DP  RH WIND       PRES   REMARKS
ELKHART        CLOUDY    68  66  94 CALM      29.99
GOSHEN         MOCLDY    68  67  96 W3        29.99R FOG
LOGANSPORT +   CLEAR     64  61  88 CALM      29.99S FOG
PERU/GRISSOM   CLEAR     66  64  94 W3        29.98S
ROCHESTER +    CLEAR     70  70 100 CALM      30.00R FOG
SOUTH BEND     CLOUDY    68  66  93 CALM      29.99S
WARSAW +       PTCLDY    64  64 100 CALM      29.99S FOG

$$

INZ006>009-017-018-025>027-041200-
NORTHEAST INDIANA

CITY           SKY/WX    TMP DP  RH WIND       PRES   REMARKS
ANGOLA *+      CLOUDY    72  63  73 NW3       29.99R
AUBURN +       PTCLDY    70  66  88 CALM      29.99R FOG
FORT WAYNE     MOCLDY    67  65  93 W3        30.00R
HUNTINGTON +   CLEAR     67  63  89 CALM      29.99R FOG

$$

INZ028-029-035-036-043>045-051>053-041200-
WEST CENTRAL INDIANA

CITY           SKY/WX    TMP DP  RH WIND       PRES   REMARKS
CRAWFORDSVL +  MOCLDY    63  63 100 CALM      30.01R FOG
GREENCASTLE +  CLEAR     64  63  94 CALM      30.02R FOG
LAFAYETTE      PTCLDY    66  66 100 CALM      29.99R FOG
TERRE HAUTE    CLEAR     66  64  93 CALM      30.00R FOG

$$

INZ030>032-037>040-046>048-054>057-064-065-041200-
CENTRAL INDIANA

CITY           SKY/WX    TMP DP  RH WIND       PRES   REMARKS
COLUMBUS       MOCLDY    66  64  94 CALM      30.02  FOG
FISHERS *+     CLEAR     68  68 100 S3        30.01R
FRANKFORT +    CLEAR    N/A N/A N/A CALM      30.02R HAZE
GREENWOOD *+   CLEAR     68  63  83 CALM      30.02R
INDIANAPOLIS   PTCLDY    69  66  90 SW5       30.00R
-EAGLE CREEK   MOCLDY    70  67  90 CALM      30.00R
KOKOMO *+      CLEAR     70  63  78 CALM      29.99S
MARION +       CLEAR     66  60  80 CALM      30.00R
MT COMFORT *+  CLEAR     68 N/A N/A S5        30.01R
SHELBYVILLE    MOCLDY    70  66  87 SW3       30.00R FOG
ZIONSVILLE +   CLEAR     66  63  89 CALM      30.01R FOG

$$

INZ033-034-041-042-049-050-058-059-041200-
EAST CENTRAL INDIANA

CITY           SKY/WX    TMP DP  RH WIND       PRES   REMARKS
MUNCIE         CLEAR     70  66  87 SW5       30.00R

$$

INZ060-061-067>069-081>083-085>088-041200-
SOUTHWEST INDIANA

CITY           SKY/WX    TMP DP  RH WIND       PRES   REMARKS
EVANSVILLE     CLEAR     70  68  93 CALM      30.01S FOG
HUNTINGBURG *+ CLEAR     66  64  94 CALM      30.02R
WASHINGTON +   CLEAR     66  62  87 CALM      30.00S

$$

INZ062-063-066-070>080-084-089>092-041200-
SOUTH CENTRAL AND SOUTHEAST INDIANA

CITY           SKY/WX    TMP DP  RH WIND       PRES   REMARKS
BLOOMINGTON    CLEAR     67  65  93 CALM      30.02R FOG
MADISON *+       N/A     64  63  94 CALM      30.05R VSB 1/2
NORTH VERNON + CLEAR     68  68 100 CALM      30.02R FOG
SEYMOUR +      FOG       64  64 100 CALM      30.01R VSB 1/4

$$



USA.gov is the U.S. government's official web portal to all federal, state and local government web resources and services.